Content
SEND FEEDBACK

Daily
Averages
Monthly
Summary
United States of America

WHEELING, ILLINOIS


Home > North America > United States > Illinois
Elevation: 636 feet     Latitude: 42 07N     Longitude: 087 54W

WEATHER
 
SELECT A DAY
Number of Records: 199,610;   Date Range: 7/8/95 - 12/19/14
 
SHARE

PRINT THIS DATA

[ ← Previous Day ]
WEATHER ALMANAC - AUGUST 7, 2014
[ Next Day → ]
[ °C ]   °F
Weather ElementAverageHighLow
Temperature70.9 °F80.1 °F (12:52 pm)61 °F (2:52 am)
Dewpoint58.4 °F64 °F (10:52 pm)54 °F (12:52 pm)
Humidity66.5 %87 % (1:52 am)40 % (12:52 pm)
Barometer30.09 in30.12 in (6:52 am)30.05 in (12:52 am)
Wind Speed5.2 mph10.4 mph (1:52 pm)
Wind Gust17.3 mph (11:52 am)
Weather ElementAverage
Visibility10 mi
Wind DirectionENE (52.1 °)

Weather ElementTotal
Precipitation---
Cooling Degree Days5.6 (Base 65)
Growing Degree Days20.6 (Base 50)
Averaged from 24 records on August 7, 2014
WEATHER CONDITIONS BREAKOUT
WIND DIRECTION BREAKOUT
WEATHER BY HOUR - AUGUST 7, 2014
[ °C ]   °F
Local TimeTemperatureDewpointHumidityBarometerVisibilityWind DirectionWind SpeedGust SpeedPrecipitationEventsConditions
12:52 AM63.0 °F55.0 °F75 %30.10 in10.0 miCalmClear
1:52 AM62.1 °F55.0 °F78 %30.10 in10.0 miCalmClear
2:52 AM61.0 °F55.0 °F81 %30.10 in10.0 miCalmClear
3:52 AM61.0 °F55.9 °F83 %30.09 in10.0 miCalmClear
4:52 AM61.0 °F57.0 °F87 %30.09 in10.0 miNorth (10°)3.5 mphClear
5:52 AM62.1 °F57.9 °F86 %30.10 in10.0 miCalmClear
6:52 AM64.0 °F60.1 °F87 %30.12 in10.0 miCalmClear
7:52 AM70.0 °F61.0 °F73 %30.12 in10.0 miNE (50°)5.8 mphClear
8:52 AM73.0 °F61.0 °F66 %30.11 in10.0 miEast (80°)6.9 mphClear
9:52 AM75.0 °F61.0 °F62 %30.12 in10.0 miESE (110°)6.9 mphClear
10:52 AM77.0 °F60.1 °F56 %30.12 in10.0 miEast (90°)8.1 mphClear
11:52 AM79.0 °F57.0 °F47 %30.11 in10.0 miESE (110°)8.1 mph17.3 mphClear
12:52 PM80.1 °F54.0 °F40 %30.11 in10.0 miESE (110°)5.8 mphClear
1:52 PM79.0 °F55.0 °F44 %30.09 in10.0 miENE (60°)10.4 mphClear
2:52 PM79.0 °F59.0 °F50 %30.09 in10.0 miEast (90°)8.1 mphClear
3:52 PM78.1 °F59.0 °F52 %30.07 in10.0 miEast (80°)9.2 mphClear
4:52 PM78.1 °F59.0 °F52 %30.06 in10.0 miENE (60°)6.9 mphClear
5:52 PM75.9 °F57.9 °F54 %30.06 in10.0 miENE (60°)9.2 mphClear
6:52 PM75.0 °F55.9 °F51 %30.06 in10.0 miNE (50°)8.1 mphClear
7:52 PM72.0 °F57.0 °F59 %30.05 in10.0 miENE (60°)5.8 mphClear
8:52 PM70.0 °F61.0 °F73 %30.06 in10.0 miNE (50°)6.9 mphClear
9:52 PM69.1 °F62.1 °F78 %30.07 in10.0 miNE (50°)5.8 mphClear
10:52 PM69.1 °F64.0 °F84 %30.07 in10.0 miNE (50°)6.9 mphClear
11:52 PM69.1 °F62.1 °F78 %30.08 in10.0 miEast (80°)3.5 mphClear
Hourly data recorded from KPWK, located miles away from Wheeling, Illinois







STORIES FROM OUR PARTNERS